FW9069 Weather Reports


Display with metric or nautical units.
time (UTC)temp
F
wind
direction
speed
MPH
gust
MPH
rain 1hr
in
rain 24hr
in
rain mn
in
humidity
%
barometer
mb
20260503171822 68 352 3.0 8.0 0.00 0.00 0.00 72 1012.1
20260503170326 67 336 5.0 7.0 0.00 0.00 0.00 73 1012.4
20260503150350 58 350 3.0 4.0 0.00 0.00 0.00 91 1012.6
20260503130329 54 323 3.0 5.0 0.00 0.00 0.00 93 1011.9
20260503110336 57 341 1.0 3.0 0.00 0.00 0.00 88 1012.1
20260503090343 57 319 2.0 6.0 0.00 0.00 0.00 90 1012.4
20260503080321 57 315 0.0 1.0 0.00 0.00 0.00 88 1012.5
20260503071826 58 316 1.0 3.0 0.00 0.00 0.00 87 1012.9
20260503070335 58 317 2.0 3.0 0.00 0.00 0.00 87 1012.9
20260503060334 58 317 2.0 7.0 0.00 0.00 0.00 88 1012.8
20260503054826 58 317 0.0 1.0 0.00 0.00 0.00 87 1012.8
20260503053339 58 317 2.0 3.0 0.00 0.00 0.00 86 1013.0
20260503051849 59 317 0.0 1.0 0.00 0.00 0.00 85 1013.0
20260503050338 59 317 1.0 2.0 0.00 0.00 0.00 84 1013.0
20260503044824 60 317 1.0 3.0 0.00 0.00 0.00 83 1013.0
20260503043329 60 317 0.0 2.0 0.00 0.00 0.00 82 1012.8
20260503041841 61 317 3.0 6.0 0.00 0.00 0.00 81 1012.8
20260503040331 62 322 1.0 3.0 0.00 0.00 0.00 80 1012.8
20260503034820 62 301 1.0 4.0 0.00 0.00 0.00 79 1012.5
20260503033328 62 277 3.0 5.0 0.00 0.00 0.00 78 1012.1
20260503031834 63 3 3.0 6.0 0.00 0.00 0.00 76 1012.2
20260503030338 63 306 2.0 3.0 0.00 0.00 0.00 77 1012.1
20260503024829 63 305 1.0 5.0 0.00 0.00 0.00 77 1011.9
20260503021826 64 358 0.0 1.0 0.00 0.00 0.00 76 1012.3
20260503020338 64 360 2.0 5.0 0.00 0.00 0.00 75 1012.6
20260503014826 65 8 4.0 13.0 0.00 0.00 0.00 72 1012.9
20260503013338 66 51 2.0 8.0 0.00 0.00 0.00 70 1013.1
20260503011828 66 15 3.0 7.0 0.00 0.00 0.00 70 1012.7
20260503010333 66 21 3.0 5.0 0.00 0.00 0.00 69 1012.6
20260503004840 66 21 3.0 8.0 0.00 0.00 0.00 70 1012.5
20260503003329 66 7 3.0 5.0 0.00 0.00 0.00 69 1012.6
20260503001833 67 17 2.0 5.0 0.00 0.00 0.00 68 1012.4
20260503000323 67 5 1.0 7.0 0.00 0.00 0.00 68 1012.3
20260502234830 67 356 4.0 8.0 0.00 0.00 0.00 71 1012.2
20260502233336 67 331 3.0 7.0 0.00 0.00 0.00 70 1012.4
20260502231819 66 19 3.0 7.0 0.00 0.00 0.00 71 1012.7
20260502230326 66 327 4.0 5.0 0.00 0.00 0.00 71 1012.8
20260502224854 64 329 3.0 5.0 0.00 0.00 0.00 72 1013.2
20260502223350 64 339 2.0 5.0 0.00 0.00 0.00 72 1013.7
20260502221857 65 339 5.0 8.0 0.00 0.00 0.00 71 1013.9
20260502220324 65 52 6.0 8.0 0.00 0.00 0.00 69 1013.9
20260502214826 66 335 5.0 9.0 0.00 0.00 0.00 68 1014.0
20260502213333 66 9 3.0 11.0 0.00 0.00 0.00 69 1014.3
20260502211823 66 323 2.0 9.0 0.00 0.00 0.00 68 1014.3
20260502210330 65 304 2.0 7.0 0.00 0.00 0.00 73 1014.4
20260502204835 65 359 3.0 12.0 0.00 0.00 0.00 70 1014.7
20260502203319 64 325 3.0 12.0 0.00 0.00 0.00 72 1014.8
20260502201846 63 4 3.0 11.0 0.00 0.00 0.00 74 1015.1
20260502200336 62 306 2.0 9.0 0.00 0.00 0.00 72 1015.1
20260502194824 62 325 4.0 7.0 0.00 0.00 0.00 73 1015.7
20260502193327 61 10 3.0 8.0 0.00 0.00 0.00 75 1015.8
20260502191832 58 7 3.0 8.0 0.00 0.00 0.00 76 1015.8
20260502190321 58 335 3.0 8.0 0.00 0.00 0.00 76 1016.2
20260502184850 57 325 1.0 7.0 0.00 0.00 0.00 78 1016.1
20260502183336 57 327 3.0 7.0 0.00 0.00 0.00 79 1016.2
20260502181823 55 22 2.0 3.0 0.00 0.00 0.00 82 1016.3
20260502180351 54 317 1.0 5.0 0.00 0.00 0.00 84 1016.2